Lincoln, NE

7:23 PM CDT on August 28, 2016 (GMT -0500)
Lincoln Municipal

Weather History for KLNK - November, 2011

Change the Weather History Date:

Wednesday, November 16, 2011

  Actual Average Record
Temperature  
Mean Temperature 33 °F 39 °F  
Max Temperature 45 °F 50 °F 74 °F (1953)
Min Temperature 20 °F 27 °F 4 °F (1955)
Degree Days  
Heating Degree Days 32 26  
Month to date heating degree days 357 357  
Since 1 July heating degree days 835 836  
Cooling Degree Days 0 0  
Month to date cooling degree days 0 0  
Year to date cooling degree days 1296 1173  
Moisture  
Dew Point 17 °F    
Average Humidity 49    
Maximum Humidity 75    
Minimum Humidity 22    
Precipitation  
Precipitation 0.00 in 0.04 in 2.06 in (1996)
Month to date precipitation 1.61 0.83  
Year to date precipitation 27.54 27.40  
Snow  
Snow 0.00 in 0.10 in - ()
Month to date snowfall T 0.8  
Since 1 July snowfall T 1.5  
Snow Depth 0.00 in    
Sea Level Pressure  
Sea Level Pressure 30.27 in    
Wind  
Wind Speed 6 mph (NW)    
Max Wind Speed 21 mph    
Max Gust Speed 26 mph    
Visibility 10 miles    
Events      
T = Trace of Precipitation, MM = Missing Value Source: NWS Daily Summary

Daily Weather History Graph

Daily Weather History Graph

Search for Another Location

Airport or City:

Trip Planner

Search our weather history database for the weather conditions in past years. The results will help you decide how hot, cold, wet, or windy it might be!

Date:

Astronomy

Nov. 16, 2011 Rise Set
Actual Time 7:15 AM CST 5:08 PM CST
Civil Twilight 6:45 AM CST 5:37 PM CST
Nautical Twilight 6:12 AM CST 6:10 PM CST
Astronomical Twilight 5:39 AM CST 6:43 PM CST
Moon 10:23 PM CST (11/16) 11:51 AM CST (11/16)
Length of Visible Light 10h 51m
Length of Day
9h 53m
Waning Gibbous, 70% of the Moon is Illuminated
Nov 16
Waning Gibbous
Nov 18
Last Quarter
Nov 25
New
Dec 2
First Quarter
Dec 10
Full

Hourly Weather History & Observations

Time (CST) Temp. Windchill Dew Point Humidity Pressure Visibility Wind Dir Wind Speed Gust Speed Precip Events Conditions
12:54 AM 24.1 °F 18.2 °F 16.0 °F 71% 30.13 in 10.0 mi NNW 4.6 mph - N/A   Clear
1:54 AM 24.1 °F - 16.0 °F 71% 30.14 in 10.0 mi Calm Calm - N/A   Clear
2:54 AM 25.0 °F - 15.1 °F 66% 30.15 in 10.0 mi Calm Calm - N/A   Clear
3:54 AM 23.0 °F 15.8 °F 12.9 °F 65% 30.14 in 10.0 mi North 5.8 mph - N/A   Clear
4:54 AM 28.9 °F 19.8 °F 14.0 °F 54% 30.15 in 10.0 mi North 10.4 mph - N/A   Scattered Clouds
5:54 AM 28.4 °F 20.4 °F 15.8 °F 59% 30.16 in 10.0 mi North 8.1 mph - N/A   Overcast
6:54 AM 30.0 °F 23.2 °F 14.0 °F 51% 30.23 in 10.0 mi North 6.9 mph - N/A   Overcast
7:54 AM 27.0 °F 20.5 °F 16.0 °F 63% 30.27 in 10.0 mi North 5.8 mph - N/A   Overcast
8:54 AM 32.0 °F 28.7 °F 16.0 °F 52% 30.30 in 10.0 mi NW 3.5 mph - N/A   Mostly Cloudy
9:54 AM 35.6 °F - 15.8 °F 44% 30.29 in 10.0 mi Calm Calm - N/A   Overcast
10:54 AM 37.9 °F 33.5 °F 16.0 °F 41% 30.33 in 10.0 mi Variable 5.8 mph - N/A   Mostly Cloudy
11:54 AM 41.0 °F 36.4 °F 15.1 °F 35% 30.33 in 10.0 mi West 6.9 mph - N/A   Clear
12:54 PM 43.0 °F 38.8 °F 10.9 °F 27% 30.31 in 10.0 mi WNW 6.9 mph - N/A   Partly Cloudy
1:54 PM 44.1 °F 38.1 °F 9.0 °F 24% 30.30 in 10.0 mi NW 11.5 mph - N/A   Scattered Clouds
2:54 PM 45.0 °F 39.3 °F 8.1 °F 22% 30.30 in 10.0 mi NNW 11.5 mph - N/A   Partly Cloudy
3:54 PM 43.0 °F 38.2 °F 10.0 °F 26% 30.30 in 10.0 mi WNW 8.1 mph - N/A   Mostly Cloudy
4:54 PM 41.0 °F 35.8 °F 19.4 °F 42% 30.28 in 10.0 mi WNW 8.1 mph 20.7 mph N/A   Overcast
5:54 PM 37.9 °F 32.1 °F 21.0 °F 51% 30.32 in 10.0 mi West 8.1 mph - N/A   Scattered Clouds
6:54 PM 35.1 °F 27.4 °F 27.0 °F 72% 30.34 in 10.0 mi West 10.4 mph - N/A   Clear
7:54 PM 33.1 °F 26.9 °F 27.0 °F 78% 30.37 in 10.0 mi WNW 6.9 mph - N/A   Clear
8:54 PM 32.0 °F 25.6 °F 24.1 °F 73% 30.38 in 10.0 mi NW 6.9 mph - N/A   Mostly Cloudy
9:54 PM 26.6 °F - 19.4 °F 74% 30.35 in 10.0 mi Calm Calm - N/A   Clear
10:54 PM 28.0 °F 24.2 °F 21.0 °F 75% 30.38 in 10.0 mi West 3.5 mph - N/A   Clear
11:54 PM 24.8 °F 20.5 °F 19.4 °F 80% 30.35 in 10.0 mi WSW 3.5 mph - N/A   Clear